This demonstration page uses our WeatherBlox Daily Observations layout. Learn more.

Left ArrowRight Arrow

Hourly Observations for May 2, 2022

Temp ( °F °C ) Dew Point ( °F °C ) Humidity (%) Winds ( mph kmh ) Pressure ( in mb ) Visibility ( mi km ) Precip ( " mm )
12:53 am 00:53 Partly Cloudy 63 17.2 46 7.8 54 54 ESE 15 24 29.90 1012 10 16 0.00 0.00
1:25 am 01:25 Cloudy with Thunderstorms 62 16.7 46 7.8 56 56 ESE 8 13 29.93 1013 10 16 0.00 0.00
1:53 am 01:53 Cloudy with Thunderstorms 60 15.6 49 9.4 67 67 ESE 7 11 29.93 1014 5 8 0.00 0.00
2:53 am 02:53 Cloudy with Thunderstorms 57 13.9 50 10 78 78 ESE 15 24 29.92 1013 6 10 0.09 2.29
3:28 am 03:28 Cloudy with Strong Thunderstorms 56 13.3 51 10.6 84 84 ENE 16 26 29.91 1013 3 4 0.09 2.29
3:37 am 03:37 Cloudy with Thunderstorms 56 13.3 51 10.6 84 84 E 8 13 29.92 1013 5 8 0.12 3.05
3:53 am 03:53 Cloudy with Thunderstorms 57 13.9 51 10.6 81 81 E 13 20 29.89 1012 6 10 0.12 3.05
4:53 am 04:53 Cloudy with Thunderstorms 57 13.9 50 10 78 78 E 13 20 29.89 1012 10 16 0.00 0.00
5:51 am 05:51 Cloudy with Strong Thunderstorms 54 12 50 10 88 88 E 15 24 29.88 1012 2 3 0.11 2.79
5:53 am 05:53 Cloudy with Strong Thunderstorms 54 12.2 50 10 87 87 E 13 20 29.86 1011 2 3 0.14 3.56
6:11 am 06:11 Cloudy with Thunderstorms 55 12.8 51 10.6 87 87 ESE 14 22 29.88 1012 3 5 0.11 2.79
6:41 am 06:41 Cloudy with Rain 54 12.2 51 10.6 90 90 ESE 13 20 29.87 1012 3 5 0.24 6.10
6:53 am 06:53 Cloudy with Light Rain 54 12.2 51 10.6 90 90 E 14 22 29.84 1011 4 6 0.28 7.11
7:53 am 07:53 Cloudy 55 12.8 52 11.1 90 90 E 17 28 29.83 1010 10 16 0.03 0.76
8:35 am 08:35 Cloudy 55 12.8 52 11.1 90 90 ESE 16 26 29.82 1010 10 16 0.00 0.00
8:53 am 08:53 Cloudy 56 13.3 53 11.7 90 90 ESE 13 20 29.80 1009 10 16 0.00 0.00
9:18 am 09:18 Cloudy 56 13.3 54 12.2 93 93 ESE 18 30 29.81 1010 10 16 0.00 0.00
9:53 am 09:53 Cloudy 57 13.9 54 12.2 90 90 ESE 16 26 29.77 1008 10 16 0.00 0.00
10:49 am 10:49 Cloudy with Light Rain 57 14 55 13 94 94 ESE 15 24 29.78 1009 7 11 0.01 0.25
10:53 am 10:53 Cloudy with Light Rain 58 14.4 56 13.3 93 93 ESE 15 24 29.76 1008 7 11 0.01 0.25
11:11 am 11:11 Cloudy with Light Rain 59 15 56 13.3 90 90 ESE 20 31 29.77 1008 10 16 0.00 0.00
11:53 am 11:53 Cloudy 59 15 57 13.9 93 93 ESE 17 28 29.74 1007 10 16 0.00 0.00
12:00 pm 12:00 Cloudy 60 15.6 57 13.9 90 90 ESE 20 31 29.74 1007 10 16 0.00 0.00
12:53 pm 12:53 Cloudy 60 15.6 58 14.4 93 93 ESE 14 22 29.71 1006 10 16 0.00 0.00
1:31 pm 13:31 Cloudy with Light Rain 61 16.1 58 14.4 90 90 ESE 9 15 29.70 1006 10 16 0.00 0.00
1:53 pm 13:53 Cloudy 61 16.1 58 14.4 90 90 ESE 12 19 29.69 1005 10 16 0.01 0.25
2:53 pm 14:53 Cloudy with Light Rain 61 16.1 58 14.4 90 90 SE 12 19 29.68 1005 10 16 0.00 0.00
3:40 pm 15:40 Cloudy 61 16.1 58 14.4 90 90 SE 10 17 29.64 1004 10 16 0.00 0.00
3:53 pm 15:53 Cloudy 61 16.1 59 15 93 93 ESE 10 17 29.63 1003 10 16 0.00 0.00
4:53 pm 16:53 Cloudy 63 17.2 60 15.6 90 90 E 6 9 29.62 1003 10 16 0.00 0.00
5:53 pm 17:53 Cloudy with Light Rain 63 17.2 61 16.1 93 93 E 10 17 29.58 1002 8 13 0.00 0.00
6:06 pm 18:06 Cloudy with Thunderstorms 63 17.2 61 16.1 93 93 E 9 15 29.58 1002 7 11 0.00 0.00
6:23 pm 18:23 Cloudy with Thunderstorms 61 16.1 59 15 93 93 NW 30 48 29.68 1005 1 1 0.00 0.00
6:35 pm 18:35 Mostly Cloudy with Strong Thunderstorms 57 13.9 57 13.9 100 100 NNE 23 37 29.61 1003 1 2 0.64 16.26
6:43 pm 18:43 Mostly Cloudy with Thunderstorms 58 14.4 57 13.9 97 97 N 15 24 29.61 1003 5 8 0.70 17.78
6:53 pm 18:53 Partly Cloudy 59 15 57 13.9 93 93 N 7 11 29.62 1003 10 16 0.70 17.78
7:43 pm 19:43 Mostly Cloudy 59 15 57 13.9 93 93 undefined N/A 29.70 1006 10 16 0.00 0.00
7:53 pm 19:53 Mostly Cloudy 53 11.7 51 10.6 93 93 NNW 24 39 29.71 1006 10 16 0.00 0.00
8:53 pm 20:53 Cloudy 50 10 48 8.9 93 93 NNW 21 33 29.77 1008 8 13 0.00 0.00
9:53 pm 21:53 Cloudy with Light Rain 47 8.3 45 7.2 93 93 NNW 25 41 29.80 1009 3 4 0.00 0.00
10:05 pm 22:05 Cloudy with Light Rain 46 7.8 44 6.7 93 93 NNW 24 39 29.83 1010 4 6 0.00 0.00
10:53 pm 22:53 Cloudy 46 7.8 43 6.1 89 89 NNW 23 37 29.83 1010 10 16 0.00 0.00
11:18 pm 23:18 Cloudy 45 7.2 42 5.6 90 90 NNW 24 39 29.87 1011 10 16 0.00 0.00
11:53 pm 23:53 Cloudy 45 7.2 41 5 86 86 NNW 29 46 29.85 1011 10 16 0.00 0.00

Powered by AerisWeather